• In France
  • List of Countries
  • For 7 days
  • Water Temperature
  • Satellite Maps
  • Weather Map
  • Weather Widgets
  • user-avatar
    Login

    Hourly Weather Brecon

    Today, 19 September, Wednesday

    Time Temperature Precipitation Wind Pressure Humidity
    00:00 +14°C° 0 mm 5 mps 741 mmHg 95%
    01:00 +14°C° 0 mm 5 mps 741 mmHg 95%
    02:00 +14°C° 0 mm 6 mps 741 mmHg 95%
    03:00 +14°C° 0 mm 6 mps 741 mmHg 94%
    04:00 +14°C° 0 mm 7 mps 741 mmHg 94%
    05:00 +14°C° 0 mm 7 mps 740 mmHg 93%
    06:00 +14°C° 0 mm 7 mps 740 mmHg 94%
    07:00 +15°C° 0 mm 8 mps 740 mmHg 90%
    08:00 +16°C° 0 mm 10 mps 740 mmHg 86%
    09:00 +17°C° 0 mm 11 mps 740 mmHg 82%
    10:00 +17°C° 0.1 mm 12 mps 740 mmHg 80%
    11:00 +18°C° 0.1 mm 12 mps 740 mmHg 79%
    12:00 +18°C° 0.1 mm 12 mps 740 mmHg 77%
    13:00 +17°C° 0.1 mm 11 mps 741 mmHg 78%
    14:00 +16°C° 0.1 mm 10 mps 741 mmHg 79%
    15:00 +15°C° 0.1 mm 9 mps 742 mmHg 80%
    16:00 +15°C° 0 mm 8 mps 742 mmHg 79%
    17:00 +14°C° 0 mm 7 mps 743 mmHg 77%
    18:00 +13°C° 0 mm 6 mps 743 mmHg 76%
    19:00 +13°C° 0 mm 6 mps 743 mmHg 76%
    20:00 +12°C° 0 mm 5 mps 744 mmHg 77%
    21:00 +12°C° 0 mm 5 mps 744 mmHg 78%
    22:00 +12°C° 0.2 mm 4 mps 744 mmHg 82%
    23:00 +12°C° 0.2 mm 3 mps 744 mmHg 85%

    Tomorrow, 20 September, Thursday

    Time Temperature Precipitation Wind Pressure Humidity
    00:00 +13°C° 0.2 mm 2 mps 743 mmHg 89%
    01:00 +12°C° 0.7 mm 3 mps 743 mmHg 91%
    02:00 +12°C° 0.7 mm 3 mps 743 mmHg 92%
    03:00 +12°C° 0.7 mm 3 mps 742 mmHg 94%
    04:00 +12°C° 0.4 mm 3 mps 742 mmHg 94%
    05:00 +13°C° 0.4 mm 4 mps 742 mmHg 94%
    06:00 +13°C° 0.4 mm 4 mps 742 mmHg 94%
    07:00 +13°C° 2.3 mm 4 mps 741 mmHg 94%
    08:00 +14°C° 2.3 mm 5 mps 741 mmHg 95%
    09:00 +14°C° 2.3 mm 5 mps 741 mmHg 95%
    10:00 +15°C° 2.1 mm 6 mps 740 mmHg 94%
    11:00 +15°C° 2.1 mm 8 mps 740 mmHg 94%
    12:00 +16°C° 2.1 mm 9 mps 739 mmHg 93%
    13:00 +16°C° 1.4 mm 10 mps 738 mmHg 92%
    14:00 +16°C° 1.4 mm 10 mps 737 mmHg 90%
    15:00 +17°C° 1.4 mm 11 mps 736 mmHg 89%
    16:00 +16°C° 2.3 mm 11 mps 735 mmHg 90%
    17:00 +16°C° 2.3 mm 11 mps 734 mmHg 91%
    18:00 +16°C° 2.3 mm 11 mps 733 mmHg 93%
    19:00 +16°C° 2.8 mm 11 mps 733 mmHg 93%
    20:00 +16°C° 2.8 mm 11 mps 732 mmHg 93%
    21:00 +16°C° 2.8 mm 11 mps 732 mmHg 93%
    22:00 +13°C° 0.4 mm 11 mps 733 mmHg 90%
    23:00 +9°C° 0.4 mm 11 mps 734 mmHg 87%

    Day after tomorrow, 21 September, Friday

    Time Temperature Precipitation Wind Pressure Humidity
    00:00 +7°C° 0.4 mm 11 mps 735 mmHg 85%
    01:00 +7°C° 0 mm 10 mps 736 mmHg 84%
    02:00 +6°C° 0 mm 9 mps 737 mmHg 82%
    03:00 +6°C° 0 mm 8 mps 738 mmHg 81%
    04:00 +6°C° 0 mm 8 mps 738 mmHg 79%
    05:00 +6°C° 0 mm 8 mps 739 mmHg 77%
    06:00 +6°C° 0 mm 8 mps 739 mmHg 76%
    07:00 +7°C° 0.1 mm 9 mps 740 mmHg 73%
    08:00 +8°C° 0.1 mm 10 mps 740 mmHg 70%
    09:00 +9°C° 0.1 mm 11 mps 741 mmHg 68%
    10:00 +11°C° 0.1 mm 11 mps 742 mmHg 67%
    11:00 +11°C° 0.1 mm 11 mps 743 mmHg 66%
    12:00 +12°C° 0.1 mm 11 mps 743 mmHg 66%
    13:00 +12°C° 0.1 mm 10 mps 744 mmHg 65%
    14:00 +12°C° 0.1 mm 10 mps 744 mmHg 65%
    15:00 +12°C° 0.1 mm 9 mps 744 mmHg 65%
    16:00 +11°C° 0 mm 8 mps 744 mmHg 69%
    17:00 +10°C° 0 mm 7 mps 745 mmHg 72%
    18:00 +9°C° 0 mm 6 mps 745 mmHg 76%
    19:00 +9°C° 0 mm 6 mps 746 mmHg 78%
    20:00 +8°C° 0 mm 6 mps 746 mmHg 80%
    21:00 +8°C° 0 mm 5 mps 747 mmHg 82%
    22:00 +7°C° 0 mm 5 mps 747 mmHg 83%
    23:00 +7°C° 0 mm 5 mps 747 mmHg 84%

    22 September, Saturday

    Time Temperature Precipitation Wind Pressure Humidity
    00:00 +7°C° 0 mm 5 mps 748 mmHg 86%
    01:00 +7°C° 0 mm 4 mps 748 mmHg 86%
    02:00 +6°C° 0 mm 4 mps 748 mmHg 87%
    03:00 +6°C° 0 mm 4 mps 748 mmHg 88%
    04:00 +7°C° 0 mm 3 mps 749 mmHg 88%
    05:00 +7°C° 0 mm 3 mps 749 mmHg 88%
    06:00 +7°C° 0 mm 3 mps 749 mmHg 88%
    07:00 +8°C° 0 mm 3 mps 749 mmHg 83%
    08:00 +9°C° 0 mm 3 mps 750 mmHg 78%
    09:00 +11°C° 0 mm 3 mps 750 mmHg 73%
    10:00 +12°C° 0 mm 3 mps 750 mmHg 70%
    11:00 +12°C° 0 mm 3 mps 750 mmHg 67%
    12:00 +13°C° 0 mm 3 mps 750 mmHg 64%
    13:00 +13°C° 0 mm 3 mps 749 mmHg 65%
    14:00 +14°C° 0 mm 2 mps 749 mmHg 67%
    15:00 +13°C° 0 mm 2 mps 749 mmHg 68%
    16:00 +13°C° 0.1 mm 2 mps 748 mmHg 73%
    17:00 +12°C° 0.1 mm 2 mps 748 mmHg 77%
    18:00 +10°C° 0.1 mm 2 mps 747 mmHg 82%
    19:00 +9°C° 1.4 mm 3 mps 746 mmHg 86%
    20:00 +8°C° 1.4 mm 4 mps 745 mmHg 90%
    21:00 +7°C° 1.4 mm 4 mps 744 mmHg 94%
    22:00 +7°C° 2.1 mm 6 mps 742 mmHg 93%
    23:00 +6°C° 2.1 mm 8 mps 740 mmHg 93%

    23 September, Sunday

    Time Temperature Precipitation Wind Pressure Humidity
    00:00 +6°C° 2.1 mm 10 mps 738 mmHg 93%
    01:00 +8°C° 4.4 mm 11 mps 735 mmHg 94%
    02:00 +9°C° 4.4 mm 11 mps 732 mmHg 94%
    03:00 +11°C° 4.4 mm 11 mps 729 mmHg 95%
    04:00 +12°C° 3.3 mm 10 mps 727 mmHg 94%
    05:00 +12°C° 3.3 mm 9 mps 724 mmHg 92%
    06:00 +14°C° 3.3 mm 7 mps 722 mmHg 90%
    07:00 +13°C° 1 mm 6 mps 720 mmHg 91%
    08:00 +13°C° 1 mm 5 mps 719 mmHg 92%
    09:00 +12°C° 1 mm 4 mps 718 mmHg 93%
    10:00 +11°C° 1.4 mm 8 mps 719 mmHg 91%
    11:00 +11°C° 1.4 mm 11 mps 720 mmHg 90%
    12:00 +9°C° 1.4 mm 14 mps 721 mmHg 89%
    13:00 +9°C° 0.4 mm 16 mps 723 mmHg 86%
    14:00 +7°C° 0.4 mm 17 mps 726 mmHg 83%
    15:00 +6°C° 0.4 mm 19 mps 729 mmHg 79%
    16:00 +6°C° 0.1 mm 18 mps 732 mmHg 76%
    17:00 +6°C° 0.1 mm 17 mps 736 mmHg 73%
    18:00 +6°C° 0.1 mm 16 mps 739 mmHg 70%
    19:00 +6°C° 0 mm 14 mps 742 mmHg 68%
    20:00 +5°C° 0 mm 12 mps 744 mmHg 66%
    21:00 +6°C° 0 mm 11 mps 747 mmHg 64%
    22:00 +6°C° 0 mm 10 mps 748 mmHg 65%
    23:00 +5°C° 0 mm 9 mps 749 mmHg 66%

    24 September, Monday

    Time Temperature Precipitation Wind Pressure Humidity
    00:00 +5°C° 0 mm 8 mps 750 mmHg 67%
    01:00 +5°C° 0 mm 7 mps 751 mmHg 69%
    02:00 +5°C° 0 mm 7 mps 752 mmHg 71%
    03:00 +4°C° 0 mm 6 mps 753 mmHg 73%
    04:00 +4°C° 0 mm 6 mps 753 mmHg 74%
    05:00 +4°C° 0 mm 6 mps 754 mmHg 74%
    06:00 +3°C° 0 mm 6 mps 755 mmHg 75%
    07:00 +5°C° 0 mm 6 mps 756 mmHg 72%
    08:00 +7°C° 0 mm 6 mps 756 mmHg 69%
    09:00 +8°C° 0 mm 7 mps 757 mmHg 67%
    10:00 +9°C° 0.1 mm 6 mps 757 mmHg 67%
    11:00 +9°C° 0.1 mm 6 mps 758 mmHg 67%
    12:00 +10°C° 0.1 mm 6 mps 758 mmHg 67%
    13:00 +10°C° 0.1 mm 6 mps 758 mmHg 67%
    14:00 +10°C° 0.1 mm 6 mps 758 mmHg 68%
    15:00 +10°C° 0.1 mm 6 mps 759 mmHg 69%
    16:00 +9°C° 0 mm 6 mps 759 mmHg 72%
    17:00 +8°C° 0 mm 5 mps 759 mmHg 76%
    18:00 +7°C° 0 mm 4 mps 759 mmHg 80%
    19:00 +6°C° 0 mm 4 mps 760 mmHg 81%
    20:00 +7°C° 0 mm 3 mps 760 mmHg 83%
    21:00 +5°C° 0 mm 3 mps 761 mmHg 85%
    22:00 +6°C° 0 mm 2 mps 761 mmHg 85%
    23:00 +6°C° 0 mm 2 mps 761 mmHg 86%
    Show more